2010-06-03, 01:00:04,VALID,6.42444,VALID,90,VALID,-22.4609,VALID,0.0377667,VALID,22.1591,
2010-06-03, 07:00:05,VALID,919.07,VALID,0,VALID,95.3842,VALID,35.6705,VALID,20.4049,VALID,168,VALID,0.159375,
2010-06-03, 07:01:05,VALID,919.092,VALID,0,VALID,95.1783,VALID,36.2077,VALID,20.4244,VALID,169,VALID,0.327734,
2010-06-03, 07:02:05,VALID,919.124,VALID,0,VALID,95.0335,VALID,37.497,VALID,20.4439,VALID,169,VALID,0.383594,
2010-06-03, 07:03:05,VALID,919.146,VALID,0,VALID,94.9649,VALID,40.0756,VALID,20.4439,VALID,168,VALID,0.637891,
2010-06-03, 07:04:05,VALID,919.111,VALID,0,VALID,94.9268,VALID,45.0178,VALID,20.4634,VALID,168,VALID,0.769922,
2010-06-03, 07:05:05,VALID,919.116,VALID,0,VALID,94.9573,VALID,51.2494,VALID,20.4829,VALID,169,VALID,0.900781,
2010-06-03, 07:06:05,VALID,919.082,VALID,0,VALID,94.8429,VALID,57.9108,VALID,20.4634,VALID,169,VALID,1.06367,
2010-06-03, 07:07:05,VALID,919.053,VALID,0,VALID,94.8429,VALID,67.9028,VALID,20.4634,VALID,169,VALID,0.886719,
2010-06-03, 07:08:05,VALID,919.052,VALID,0,VALID,94.7591,VALID,81.0106,VALID,20.5024,VALID,169,VALID,1.1125,
2010-06-03, 07:09:05,VALID,919.091,VALID,0,VALID,94.6828,VALID,95.6226,VALID,20.5024,VALID,168,VALID,1.08008,
2010-06-03, 07:10:05,VALID,919.049,VALID,0,VALID,94.7819,VALID,106.582,VALID,20.5204,VALID,44,VALID,1.0832,
2010-06-03, 07:11:05,VALID,919.063,VALID,0,VALID,94.4617,VALID,111.846,VALID,20.5414,VALID,44,VALID,1.0918,
2010-06-03, 07:12:05,VALID,919.042,VALID,0,VALID,94.5227,VALID,113.35,VALID,20.5999,VALID,44,VALID,1.01094,
2010-06-03, 07:13:05,VALID,919.046,VALID,0,VALID,94.4999,VALID,112.276,VALID,20.6585,VALID,44,VALID,1.06016,
2010-06-03, 07:14:05,VALID,919.043,VALID,0,VALID,94.7896,VALID,110.235,VALID,20.717,VALID,38,VALID,0.810156,
2010-06-03, 07:15:05,VALID,919.014,VALID,0,VALID,94.6981,VALID,108.408,VALID,20.795,VALID,353,VALID,0.816797,
2010-06-03, 07:16:05,VALID,919.048,VALID,0,VALID,94.2178,VALID,107.871,VALID,20.7934,VALID,353,VALID,1.19883,
2010-06-03, 07:17:05,VALID,919.042,VALID,0,VALID,94.1873,VALID,112.706,VALID,20.8324,VALID,353,VALID,1.32813,
2010-06-03, 07:18:05,VALID,919.071,VALID,0,VALID,94.2635,VALID,122.161,VALID,20.8519,VALID,353,VALID,1.27734,
2010-06-03, 07:19:05,VALID,919.057,VALID,0,VALID,94.1263,VALID,162.451,VALID,20.8113,VALID,353,VALID,1.4793,
2010-06-03, 07:20:05,VALID,919.101,VALID,0,VALID,94.4236,VALID,197.369,VALID,20.8519,VALID,9,VALID,1.35,
2010-06-03, 07:21:05,VALID,919.096,VALID,0,VALID,94.8277,VALID,220.469,VALID,20.9284,VALID,7,VALID,0.975781,
2010-06-03, 07:22:05,VALID,919.097,VALID,0,VALID,94.4922,VALID,209.618,VALID,21.0275,VALID,350,VALID,1.14688,
2010-06-03, 07:23:05,VALID,919.076,VALID,0,VALID,93.768,VALID,245.718,VALID,21.1055,VALID,350,VALID,1.19766,
2010-06-03, 07:24:05,VALID,919.062,VALID,0,VALID,93.181,VALID,247.222,VALID,21.1819,VALID,350,VALID,1.32109,
2010-06-03, 07:25:05,VALID,919.073,VALID,0,VALID,92.4797,VALID,245.825,VALID,21.2405,VALID,350,VALID,1.04375,
2010-06-03, 07:26:05,VALID,919.066,VALID,0,VALID,92.7541,VALID,246.47,VALID,21.3591,VALID,350,VALID,1.1,
2010-06-03, 07:27:04,VALID,919.059,VALID,0,VALID,92.1061,VALID,249.478,VALID,21.4762,VALID,350,VALID,1.40469,
2010-06-03, 07:28:04,VALID,919.061,VALID,0,VALID,90.368,VALID,249.049,VALID,21.6144,VALID,350,VALID,1.28516,
2010-06-03, 07:29:04,VALID,919.031,VALID,0,VALID,89.1254,VALID,244.536,VALID,21.6323,VALID,351,VALID,1.69297,
2010-06-03, 07:30:04,VALID,919.013,VALID,0,VALID,89.842,VALID,244.536,VALID,21.6339,VALID,25,VALID,1.83906,
2010-06-03, 07:31:04,VALID,919.016,VALID,0,VALID,89.5904,VALID,251.842,VALID,21.6908,VALID,41,VALID,1.19766,
2010-06-03, 07:32:04,VALID,918.969,VALID,0,VALID,89.3846,VALID,257.429,VALID,21.7493,VALID,50,VALID,1.94141,
2010-06-03, 07:33:04,VALID,918.957,VALID,0,VALID,89.8038,VALID,265.917,VALID,21.7688,VALID,41,VALID,1.58203,
2010-06-03, 07:34:04,VALID,918.976,VALID,0,VALID,88.95,VALID,275.801,VALID,21.8079,VALID,54,VALID,1.61445,
2010-06-03, 07:35:04,VALID,918.934,VALID,0,VALID,88.7747,VALID,285.793,VALID,21.8664,VALID,44,VALID,1.85156,
2010-06-03, 07:36:04,VALID,918.948,VALID,0,VALID,87.8065,VALID,294.926,VALID,21.9054,VALID,73,VALID,1.71602,
2010-06-03, 07:37:04,VALID,918.937,VALID,0,VALID,87.5397,VALID,300.083,VALID,21.9835,VALID,73,VALID,1.49023,
2010-06-03, 07:38:04,VALID,918.923,VALID,0,VALID,87.1128,VALID,304.058,VALID,22.042,VALID,74,VALID,1.32383,
2010-06-03, 07:39:04,VALID,918.941,VALID,0,VALID,87.3262,VALID,307.926,VALID,22.1396,VALID,74,VALID,1.69531,
2010-06-03, 07:40:04,VALID,918.916,VALID,0,VALID,86.2513,VALID,312.117,VALID,22.2567,VALID,74,VALID,1.51484,
2010-06-03, 07:41:04,VALID,918.911,VALID,0,VALID,83.9033,VALID,316.092,VALID,22.3135,VALID,67,VALID,2.11875,
2010-06-03, 07:42:04,VALID,918.94,VALID,0,VALID,83.4688,VALID,318.241,VALID,22.294,VALID,40,VALID,2.16719,
2010-06-03, 07:43:04,VALID,918.943,VALID,0,VALID,84.9325,VALID,319.315,VALID,22.333,VALID,28,VALID,1.72461,
2010-06-03, 07:44:04,VALID,918.956,VALID,0,VALID,83.4917,VALID,317.703,VALID,22.4306,VALID,27,VALID,1.61641,
2010-06-03, 07:45:04,VALID,918.917,VALID,0,VALID,83.2858,VALID,315.232,VALID,22.5494,VALID,27,VALID,1.70156,
2010-06-03, 07:46:04,VALID,918.936,VALID,0,VALID,83.2934,VALID,317.489,VALID,22.6665,VALID,40,VALID,1.51797,
2010-06-03, 07:47:04,VALID,918.927,VALID,0,VALID,83.3087,VALID,328.877,VALID,22.8031,VALID,59,VALID,1.41289,
2010-06-03, 07:48:04,VALID,918.918,VALID,0,VALID,82.2719,VALID,331.778,VALID,22.8616,VALID,36,VALID,1.56055,
2010-06-03, 07:49:04,VALID,918.872,VALID,0,VALID,81.6925,VALID,332.53,VALID,22.8989,VALID,14,VALID,1.76055,
2010-06-03, 07:50:04,VALID,918.854,VALID,0,VALID,82.5768,VALID,331.134,VALID,22.9983,VALID,11,VALID,1.36719,
2010-06-03, 07:51:04,VALID,918.835,VALID,0,VALID,81.1589,VALID,328.448,VALID,23.1935,VALID,10,VALID,1.28633,
2010-06-03, 07:52:04,VALID,918.814,VALID,0,VALID,81.3876,VALID,327.803,VALID,23.3691,VALID,16,VALID,1.16602,
2010-06-03, 07:53:04,VALID,918.834,VALID,0,VALID,80.8463,VALID,328.125,VALID,23.5448,VALID,53,VALID,1.0043,
2010-06-03, 07:54:04,VALID,918.822,VALID,0,VALID,81.9441,VALID,328.233,VALID,23.7205,VALID,53,VALID,0.853906,
2010-06-03, 07:55:04,VALID,918.838,VALID,0,VALID,80.0764,VALID,326.084,VALID,23.8767,VALID,53,VALID,0.442187,
2010-06-03, 07:56:04,VALID,918.837,VALID,0,VALID,75.5557,VALID,326.514,VALID,23.9939,VALID,53,VALID,0.0371094,
2010-06-03, 07:57:04,VALID,918.828,VALID,0,VALID,78.0257,VALID,325.869,VALID,24.1696,VALID,53,VALID,0.408594,
2010-06-03, 07:58:04,VALID,918.872,VALID,0,VALID,78.5441,VALID,325.762,VALID,24.1482,VALID,53,VALID,0.666016,
2010-06-03, 07:59:04,VALID,918.874,VALID,0,VALID,78.7423,VALID,326.084,VALID,24.0506,VALID,53,VALID,0.36875,
2010-06-03, 08:00:04,VALID,918.892,VALID,0,VALID,78.0257,VALID,327.051,VALID,24.0134,VALID,53,VALID,0.791406,
2010-06-03, 08:01:04,VALID,918.915,VALID,0,VALID,78.5059,VALID,327.373,VALID,23.9139,VALID,53,VALID,0.525781,
2010-06-03, 08:02:04,VALID,918.903,VALID,0,VALID,78.8033,VALID,326.729,VALID,23.8163,VALID,53,VALID,0.457422,
2010-06-03, 08:03:04,VALID,918.942,VALID,0,VALID,76.8593,VALID,326.836,VALID,23.7382,VALID,53,VALID,0.985156,
2010-06-03, 08:04:04,VALID,918.928,VALID,0,VALID,78.5059,VALID,327.803,VALID,23.6016,VALID,53,VALID,0.805469,
2010-06-03, 08:05:04,VALID,918.927,VALID,0,VALID,78.6889,VALID,327.91,VALID,23.4454,VALID,53,VALID,1.09219,
2010-06-03, 08:06:04,VALID,918.951,VALID,0,VALID,80.7472,VALID,329.522,VALID,23.3283,VALID,53,VALID,0.951172,
2010-06-03, 08:07:04,VALID,918.98,VALID,0,VALID,81.9898,VALID,331.241,VALID,23.2502,VALID,52,VALID,1.46563,
2010-06-03, 08:08:04,VALID,918.982,VALID,0,VALID,83.8347,VALID,332.208,VALID,23.0941,VALID,266,VALID,1.85703,
2010-06-03, 08:09:04,VALID,919.022,VALID,0,VALID,85.0773,VALID,334.357,VALID,23.0143,VALID,283,VALID,0.935156,
2010-06-03, 08:10:04,VALID,918.975,VALID,0,VALID,84.8486,VALID,336.506,VALID,23.1136,VALID,242,VALID,0.827344,
2010-06-03, 08:11:04,VALID,918.986,VALID,0,VALID,84.9477,VALID,339.514,VALID,23.1704,VALID,181,VALID,1.60742,
2010-06-03, 08:12:04,VALID,919.03,VALID,0,VALID,85.0926,VALID,341.555,VALID,23.2485,VALID,174,VALID,0.637891,
2010-06-03, 08:13:04,VALID,919.033,VALID,0,VALID,84.8029,VALID,344.886,VALID,23.3869,VALID,174,VALID,0.4625,
2010-06-03, 08:14:04,VALID,919.049,VALID,0,VALID,83.1867,VALID,347.572,VALID,23.465,VALID,174,VALID,0.804688,
2010-06-03, 08:15:04,VALID,919.045,VALID,0,VALID,83.0342,VALID,351.655,VALID,23.5412,VALID,207,VALID,0.772656,
2010-06-03, 08:16:04,VALID,919.109,VALID,0,VALID,81.9136,VALID,355.093,VALID,23.5412,VALID,236,VALID,0.672266,
2010-06-03, 08:17:04,VALID,919.11,VALID,0,VALID,82.2872,VALID,358.316,VALID,23.6016,VALID,235,VALID,0.695313,
2010-06-03, 08:18:04,VALID,919.121,VALID,0,VALID,82.4244,VALID,361.325,VALID,23.6584,VALID,235,VALID,0.025,
2010-06-03, 08:19:04,VALID,919.154,VALID,0,VALID,81.0445,VALID,365.085,VALID,23.756,VALID,235,VALID,0.792578,
2010-06-03, 08:20:04,VALID,919.158,VALID,0,VALID,80.61,VALID,368.845,VALID,23.756,VALID,235,VALID,0.849609,
2010-06-03, 08:21:04,VALID,919.153,VALID,0,VALID,80.2593,VALID,370.887,VALID,23.6584,VALID,235,VALID,0.714063,
2010-06-03, 08:22:04,VALID,919.181,VALID,0,VALID,80.793,VALID,374.325,VALID,23.6779,VALID,235,VALID,0.769141,
2010-06-03, 08:23:04,VALID,919.16,VALID,0,VALID,81.7993,VALID,377.763,VALID,23.7773,VALID,235,VALID,0.511719,
2010-06-03, 08:24:04,VALID,919.183,VALID,0,VALID,81.38,VALID,380.664,VALID,23.7364,VALID,235,VALID,1.05313,
2010-06-03, 08:25:04,VALID,919.175,VALID,0,VALID,81.7993,VALID,384.102,VALID,23.6388,VALID,235,VALID,1.09531,
2010-06-03, 08:26:04,VALID,919.179,VALID,0,VALID,82.1499,VALID,388.077,VALID,23.6193,VALID,235,VALID,0.542578,
2010-06-03, 08:27:04,VALID,919.179,VALID,0,VALID,81.845,VALID,391.945,VALID,23.6388,VALID,235,VALID,0.883203,
2010-06-03, 08:28:04,VALID,919.171,VALID,0,VALID,82.9123,VALID,394.954,VALID,23.6584,VALID,235,VALID,1.06055,
2010-06-03, 08:29:04,VALID,919.204,VALID,0,VALID,83.2782,VALID,386.788,VALID,23.756,VALID,235,VALID,0.876562,
2010-06-03, 08:30:04,VALID,919.185,VALID,0,VALID,82.7217,VALID,397.962,VALID,23.7346,VALID,235,VALID,1.01797,
2010-06-03, 08:31:04,VALID,919.144,VALID,0,VALID,83.0266,VALID,403.442,VALID,23.7169,VALID,277,VALID,1.04414,
2010-06-03, 08:32:04,VALID,919.185,VALID,0,VALID,81.5934,VALID,414.615,VALID,23.6566,VALID,264,VALID,1.12695,
2010-06-03, 08:33:04,VALID,919.181,VALID,0,VALID,83.202,VALID,341.341,VALID,23.6193,VALID,254,VALID,1.28984,
2010-06-03, 08:34:04,VALID,919.184,VALID,0,VALID,82.4777,VALID,347.357,VALID,23.6566,VALID,263,VALID,0.765234,
2010-06-03, 08:35:04,VALID,919.171,VALID,0,VALID,82.4701,VALID,387.11,VALID,23.8145,VALID,263,VALID,0.535156,
2010-06-03, 08:36:04,VALID,919.199,VALID,0,VALID,81.5324,VALID,420.632,VALID,23.8536,VALID,287,VALID,1.21992,
2010-06-03, 08:37:04,VALID,919.228,VALID,0,VALID,83.0114,VALID,436.641,VALID,23.7755,VALID,230,VALID,1.31875,
2010-06-03, 08:38:04,VALID,919.235,VALID,0,VALID,82.6378,VALID,440.938,VALID,23.756,VALID,263,VALID,0.881641,
2010-06-03, 08:39:04,VALID,919.256,VALID,0,VALID,83.1181,VALID,439.864,VALID,23.756,VALID,252,VALID,1.94414,
2010-06-03, 08:40:04,VALID,919.271,VALID,0,VALID,81.8984,VALID,444.269,VALID,23.7542,VALID,249,VALID,1.00234,
2010-06-03, 08:41:04,VALID,919.265,VALID,0,VALID,82.897,VALID,453.402,VALID,23.8908,VALID,249,VALID,0.546094,
2010-06-03, 08:42:04,VALID,919.263,VALID,0,VALID,81.662,VALID,448.459,VALID,23.9884,VALID,260,VALID,0.729297,
2010-06-03, 08:43:04,VALID,919.261,VALID,0,VALID,81.1513,VALID,453.402,VALID,24.0079,VALID,288,VALID,0.580469,
2010-06-03, 08:44:04,VALID,919.29,VALID,0,VALID,81.5629,VALID,460.6,VALID,24.1055,VALID,328,VALID,0.315625,
2010-06-03, 08:45:04,VALID,919.264,VALID,0,VALID,81.014,VALID,471.344,VALID,24.2049,VALID,310,VALID,1.12734,
2010-06-03, 08:46:04,VALID,919.25,VALID,0,VALID,81.6239,VALID,314.588,VALID,24.0488,VALID,260,VALID,0.846875,
2010-06-03, 08:47:04,VALID,919.278,VALID,0,VALID,81.4486,VALID,462.642,VALID,23.9902,VALID,286,VALID,1.31289,
2010-06-03, 08:48:04,VALID,919.259,VALID,0,VALID,81.2427,VALID,439.005,VALID,23.8908,VALID,258,VALID,1.64141,
2010-06-03, 08:49:04,VALID,919.278,VALID,0,VALID,82.0889,VALID,464.898,VALID,23.8322,VALID,241,VALID,1.43711,
2010-06-03, 08:50:04,VALID,919.259,VALID,0,VALID,81.6773,VALID,471.237,VALID,23.8908,VALID,242,VALID,0.95,
2010-06-03, 08:51:04,VALID,919.253,VALID,0,VALID,82.8742,VALID,477.468,VALID,23.9298,VALID,255,VALID,1.4,
2010-06-03, 08:52:04,VALID,919.26,VALID,0,VALID,81.258,VALID,480.155,VALID,23.9316,VALID,256,VALID,1.69141,
2010-06-03, 08:53:04,VALID,919.251,VALID,0,VALID,82.0203,VALID,480.584,VALID,23.8536,VALID,249,VALID,1.7418,
2010-06-03, 08:54:04,VALID,919.237,VALID,0,VALID,82.0966,VALID,482.303,VALID,23.8127,VALID,228,VALID,1.4832,
2010-06-03, 08:55:04,VALID,919.22,VALID,0,VALID,81.8526,VALID,483.7,VALID,23.9103,VALID,242,VALID,1.77422,
2010-06-03, 08:56:04,VALID,919.198,VALID,0,VALID,80.1145,VALID,486.064,VALID,23.9884,VALID,229,VALID,1.65742,
2010-06-03, 08:57:04,VALID,919.206,VALID,0,VALID,79.0929,VALID,490.147,VALID,24.0665,VALID,228,VALID,1.36328,
2010-06-03, 08:58:04,VALID,919.196,VALID,0,VALID,79.6799,VALID,494.337,VALID,24.125,VALID,228,VALID,0.387891,
2010-06-03, 08:59:04,VALID,919.178,VALID,0,VALID,79.192,VALID,502.932,VALID,24.4197,VALID,228,VALID,0.319531,
2010-06-03, 09:00:04,VALID,919.207,VALID,0,VALID,77.6292,VALID,511.957,VALID,24.5954,VALID,227,VALID,0.966797,
2010-06-03, 09:01:04,VALID,919.173,VALID,0,VALID,77.5301,VALID,518.296,VALID,24.5954,VALID,227,VALID,0.840234,
2010-06-03, 09:02:04,VALID,919.188,VALID,0,VALID,78.384,VALID,523.883,VALID,24.5564,VALID,258,VALID,0.968359,
2010-06-03, 09:03:04,VALID,919.225,VALID,0,VALID,75.8835,VALID,526.247,VALID,24.5759,VALID,258,VALID,0.979688,
2010-06-03, 09:04:04,VALID,919.232,VALID,0,VALID,76.3409,VALID,538.28,VALID,24.7693,VALID,258,VALID,1.22891,
2010-06-03, 09:05:04,VALID,919.287,VALID,0,VALID,73.3982,VALID,560.521,VALID,24.7711,VALID,257,VALID,0.809375,
2010-06-03, 09:06:04,VALID,919.253,VALID,0,VALID,73.8023,VALID,528.61,VALID,24.7888,VALID,258,VALID,0.155469,
2010-06-03, 09:07:04,VALID,919.264,VALID,0,VALID,74.2749,VALID,493.692,VALID,25.0055,VALID,258,VALID,0.204297,
2010-06-03, 09:08:04,VALID,919.269,VALID,0,VALID,73.787,VALID,578.785,VALID,25.2593,VALID,258,VALID,0.470313,
2010-06-03, 09:09:04,VALID,919.295,VALID,0,VALID,73.0933,VALID,590.497,VALID,25.5132,VALID,258,VALID,0.911719,
2010-06-03, 09:10:04,VALID,919.255,VALID,0,VALID,74.2673,VALID,591.034,VALID,25.7671,VALID,258,VALID,0.535547,
2010-06-03, 09:11:04,VALID,919.268,VALID,0,VALID,71.7287,VALID,580.719,VALID,25.9604,VALID,258,VALID,0.225391,
2010-06-03, 09:12:04,VALID,919.284,VALID,0,VALID,71.3323,VALID,582.761,VALID,26.019,VALID,258,VALID,0.349219,
2010-06-03, 09:13:04,VALID,919.267,VALID,0,VALID,71.5458,VALID,456.732,VALID,26.1558,VALID,6,VALID,0.724609,
2010-06-03, 09:14:04,VALID,919.251,VALID,0,VALID,68.5879,VALID,554.934,VALID,26.275,VALID,26,VALID,0.665234,
2010-06-03, 09:15:04,VALID,919.277,VALID,0,VALID,69.396,VALID,478.113,VALID,25.98,VALID,243,VALID,1.24102,
2010-06-03, 09:16:04,VALID,919.287,VALID,0,VALID,71.8812,VALID,588.778,VALID,25.6284,VALID,264,VALID,0.870703,
2010-06-03, 09:17:04,VALID,919.305,VALID,0,VALID,71.9498,VALID,415.797,VALID,25.3355,VALID,287,VALID,1.28437,
2010-06-03, 09:18:04,VALID,919.301,VALID,0,VALID,73.6574,VALID,307.067,VALID,25.1012,VALID,287,VALID,0.775,
2010-06-03, 09:19:04,VALID,919.29,VALID,0,VALID,74.1758,VALID,564.066,VALID,25.0036,VALID,288,VALID,1.00273,
2010-06-03, 09:20:04,VALID,919.328,VALID,0,VALID,74.1072,VALID,567.289,VALID,25.0426,VALID,343,VALID,1.07695,
2010-06-03, 09:21:04,VALID,919.299,VALID,0,VALID,75.3803,VALID,576.529,VALID,25.1207,VALID,343,VALID,0.876953,
2010-06-03, 09:22:04,VALID,919.299,VALID,0,VALID,73.1695,VALID,591.893,VALID,25.3355,VALID,343,VALID,0.490234,
2010-06-03, 09:23:04,VALID,919.307,VALID,0,VALID,72.4606,VALID,597.91,VALID,25.4722,VALID,343,VALID,0.312109,
2010-06-03, 09:24:04,VALID,919.311,VALID,0,VALID,73.3982,VALID,577.174,VALID,25.648,VALID,343,VALID,0.386328,
2010-06-03, 09:25:04,VALID,919.3,VALID,0,VALID,72.6816,VALID,584.48,VALID,25.8433,VALID,343,VALID,0.969531,
2010-06-03, 09:26:04,VALID,919.294,VALID,0,VALID,71.5991,VALID,579.86,VALID,25.7066,VALID,343,VALID,0.760156,
2010-06-03, 09:27:04,VALID,919.218,VALID,0,VALID,72.0794,VALID,582.009,VALID,25.648,VALID,343,VALID,0.632813,
2010-06-03, 09:28:04,VALID,919.223,VALID,0,VALID,72.3233,VALID,584.158,VALID,25.5308,VALID,343,VALID,0.625781,
2010-06-03, 09:29:04,VALID,919.216,VALID,0,VALID,73.4364,VALID,599.951,VALID,25.4722,VALID,343,VALID,0.532422,
2010-06-03, 09:30:04,VALID,919.217,VALID,0,VALID,74.6256,VALID,307.926,VALID,25.5894,VALID,343,VALID,0.286719,
2010-06-03, 09:31:04,VALID,919.243,VALID,0,VALID,73.383,VALID,219.825,VALID,25.8237,VALID,343,VALID,0.804297,
2010-06-03, 09:32:04,VALID,919.214,VALID,0,VALID,73.6422,VALID,561.917,VALID,26.0386,VALID,25,VALID,1.20664,
2010-06-03, 09:33:04,VALID,919.247,VALID,0,VALID,73.261,VALID,611.77,VALID,26.1167,VALID,46,VALID,0.973047,
2010-06-03, 09:34:04,VALID,919.225,VALID,0,VALID,73.3144,VALID,626.06,VALID,26.2144,VALID,50,VALID,0.437891,
2010-06-03, 09:35:04,VALID,919.244,VALID,0,VALID,70.9588,VALID,631.861,VALID,26.3316,VALID,63,VALID,0.644141,
2010-06-03, 09:36:04,VALID,919.21,VALID,0,VALID,70.0897,VALID,634.977,VALID,26.5249,VALID,62,VALID,0.187109,
2010-06-03, 09:37:04,VALID,919.215,VALID,0,VALID,69.7009,VALID,631.539,VALID,26.6832,VALID,113,VALID,1.33086,
2010-06-03, 09:38:04,VALID,919.201,VALID,0,VALID,69.8839,VALID,623.803,VALID,26.5444,VALID,113,VALID,0.127344,
2010-06-03, 09:39:04,VALID,919.175,VALID,0,VALID,69.5179,VALID,623.696,VALID,26.7202,VALID,113,VALID,0.780469,
2010-06-03, 09:40:04,VALID,919.165,VALID,0,VALID,68.5803,VALID,599.951,VALID,26.7398,VALID,113,VALID,0.557031,
2010-06-03, 09:41:04,VALID,919.147,VALID,0,VALID,68.3287,VALID,643.573,VALID,26.7788,VALID,113,VALID,0.489844,
2010-06-03, 09:42:04,VALID,919.165,VALID,0,VALID,68.9462,VALID,667.532,VALID,26.8765,VALID,113,VALID,0.0441406,
2010-06-03, 09:43:04,VALID,919.131,VALID,0,VALID,67.2919,VALID,338.547,VALID,26.9156,VALID,113,VALID,0.603906,
2010-06-03, 09:44:04,VALID,919.145,VALID,0,VALID,67.8636,VALID,685.26,VALID,26.8765,VALID,113,VALID,0.292188,
2010-06-03, 09:45:04,VALID,919.112,VALID,0,VALID,69.4722,VALID,381.738,VALID,26.857,VALID,113,VALID,0.666797,
2010-06-03, 09:46:04,VALID,919.125,VALID,0,VALID,68.7632,VALID,599.307,VALID,26.7984,VALID,113,VALID,0.435156,
2010-06-03, 09:47:04,VALID,919.083,VALID,0,VALID,69.4493,VALID,674.623,VALID,26.7984,VALID,113,VALID,0.601172,
2010-06-03, 09:48:04,VALID,919.086,VALID,0,VALID,69.3121,VALID,157.616,VALID,26.5444,VALID,113,VALID,0.895703,
2010-06-03, 09:49:04,VALID,919.068,VALID,0,VALID,72.5216,VALID,619.613,VALID,26.2514,VALID,113,VALID,0.608203,
2010-06-03, 09:50:04,VALID,919.072,VALID,0,VALID,71.3018,VALID,580.827,VALID,26.0561,VALID,113,VALID,0.779688,
2010-06-03, 09:51:04,VALID,919.043,VALID,0,VALID,71.9955,VALID,369.812,VALID,26.0171,VALID,113,VALID,0.829297,
2010-06-03, 09:52:04,VALID,919.045,VALID,0,VALID,72.4453,VALID,295.785,VALID,25.8804,VALID,113,VALID,1.06914,
2010-06-03, 09:53:04,VALID,919.052,VALID,0,VALID,73.3449,VALID,700.301,VALID,25.8218,VALID,113,VALID,1.15977,
2010-06-03, 09:54:04,VALID,919.047,VALID,0,VALID,72.9637,VALID,637.663,VALID,25.8022,VALID,114,VALID,0.975,
2010-06-03, 09:55:04,VALID,919.042,VALID,0,VALID,74.214,VALID,688.698,VALID,25.8608,VALID,113,VALID,0.461328,
2010-06-03, 09:56:04,VALID,919.082,VALID,0,VALID,74.2826,VALID,524.098,VALID,25.9975,VALID,175,VALID,1.14258,
2010-06-03, 09:57:04,VALID,919.074,VALID,0,VALID,73.1086,VALID,172.121,VALID,25.8999,VALID,253,VALID,1.24648,
2010-06-03, 09:58:04,VALID,919.099,VALID,0,VALID,72.4682,VALID,319.315,VALID,25.7417,VALID,253,VALID,0.828125,
2010-06-03, 09:59:04,VALID,919.078,VALID,0,VALID,73.0095,VALID,752.948,VALID,25.7437,VALID,252,VALID,0.259375,
2010-06-03, 10:00:04,VALID,919.069,VALID,0,VALID,73.5812,VALID,715.558,VALID,25.8218,VALID,253,VALID,0.569922,
2010-06-03, 10:01:04,VALID,919.043,VALID,0,VALID,73.8557,VALID,708.789,VALID,25.8608,VALID,253,VALID,0.466406,
2010-06-03, 10:02:04,VALID,919.033,VALID,0,VALID,74.5646,VALID,677.416,VALID,25.8804,VALID,253,VALID,0.996484,
2010-06-03, 10:03:04,VALID,919.041,VALID,0,VALID,74.4122,VALID,141.822,VALID,25.8608,VALID,252,VALID,1.14375,
2010-06-03, 10:04:04,VALID,919.031,VALID,0,VALID,73.3296,VALID,662.59,VALID,25.7437,VALID,253,VALID,1.32578,
2010-06-03, 10:05:04,VALID,919.03,VALID,0,VALID,73.6574,VALID,293.314,VALID,25.6655,VALID,253,VALID,0.991797,
2010-06-03, 10:06:04,VALID,919.023,VALID,0,VALID,75.2355,VALID,247.33,VALID,25.6851,VALID,253,VALID,0.28125,
2010-06-03, 10:07:04,VALID,919.019,VALID,0,VALID,74.8162,VALID,346.175,VALID,25.8413,VALID,253,VALID,0.283203,
2010-06-03, 10:08:04,VALID,919.027,VALID,0,VALID,72.4529,VALID,183.295,VALID,26.0346,VALID,253,VALID,0.117188,
2010-06-03, 10:09:04,VALID,919.034,VALID,0,VALID,72.1861,VALID,216.816,VALID,26.0171,VALID,252,VALID,1.09609,
2010-06-03, 10:10:04,VALID,919.051,VALID,0,VALID,73.5965,VALID,880.05,VALID,25.9194,VALID,253,VALID,0.566406,
2010-06-03, 10:11:04,VALID,919.1,VALID,0,VALID,74.0996,VALID,892.943,VALID,25.9194,VALID,253,VALID,0.277344,
2010-06-03, 10:12:04,VALID,919.077,VALID,0,VALID,75.0602,VALID,264.52,VALID,25.9975,VALID,253,VALID,0.922656,
2010-06-03, 10:13:04,VALID,919.049,VALID,0,VALID,74.0462,VALID,212.089,VALID,25.9585,VALID,253,VALID,0.837891,
2010-06-03, 10:14:04,VALID,919.071,VALID,0,VALID,75.8225,VALID,193.824,VALID,25.9174,VALID,252,VALID,0.289063,
2010-06-03, 10:15:04,VALID,919.059,VALID,0,VALID,74.6561,VALID,209.618,VALID,26.0366,VALID,252,VALID,0.677734,
2010-06-03, 10:16:04,VALID,919.047,VALID,0,VALID,72.1633,VALID,207.684,VALID,26.0171,VALID,253,VALID,0.814453,
2010-06-03, 10:17:04,VALID,919.039,VALID,0,VALID,74.3207,VALID,226.164,VALID,25.9194,VALID,252,VALID,0.741797,
2010-06-03, 10:18:04,VALID,919.026,VALID,0,VALID,75.3651,VALID,247.544,VALID,25.8999,VALID,253,VALID,0.569531,
2010-06-03, 10:19:04,VALID,919.034,VALID,0,VALID,74.0996,VALID,461.782,VALID,25.8804,VALID,253,VALID,0.208594,
2010-06-03, 10:20:04,VALID,919.025,VALID,0,VALID,75.67,VALID,876.075,VALID,25.9194,VALID,253,VALID,0.671484,
2010-06-03, 10:21:04,VALID,919.009,VALID,0,VALID,73.9243,VALID,294.819,VALID,25.978,VALID,253,VALID,0.117578,
2010-06-03, 10:22:04,VALID,919.034,VALID,0,VALID,73.2915,VALID,300.191,VALID,25.978,VALID,252,VALID,0.766406,
2010-06-03, 10:23:04,VALID,918.992,VALID,0,VALID,73.6117,VALID,263.875,VALID,25.9585,VALID,253,VALID,0.653125,
2010-06-03, 10:24:04,VALID,919.01,VALID,0,VALID,73.0323,VALID,318.778,VALID,25.8608,VALID,253,VALID,1.1625,
2010-06-03, 10:25:04,VALID,919.016,VALID,0,VALID,74.4808,VALID,350.795,VALID,25.7632,VALID,253,VALID,1.13711,
2010-06-03, 10:26:04,VALID,918.996,VALID,0,VALID,74.2673,VALID,952.358,VALID,25.7241,VALID,253,VALID,0.546094,
2010-06-03, 10:27:04,VALID,919.03,VALID,0,VALID,73.1924,VALID,435.674,VALID,25.8022,VALID,252,VALID,0.613672,
2010-06-03, 10:28:04,VALID,919.012,VALID,0,VALID,73.1924,VALID,737.798,VALID,25.7808,VALID,253,VALID,0.421094,
2010-06-03, 10:29:04,VALID,919.025,VALID,0,VALID,72.735,VALID,965.251,VALID,25.9585,VALID,252,VALID,0.107031,
2010-06-03, 10:30:04,VALID,918.97,VALID,0,VALID,73.5278,VALID,850.826,VALID,26.2339,VALID,253,VALID,0.711328,
2010-06-03, 10:31:04,VALID,919.02,VALID,0,VALID,71.6449,VALID,405.053,VALID,26.5855,VALID,265,VALID,0.90625,
2010-06-03, 10:32:04,VALID,919.011,VALID,0,VALID,71.7516,VALID,300.191,VALID,26.7027,VALID,280,VALID,0.864062,
2010-06-03, 10:33:04,VALID,918.987,VALID,0,VALID,71.744,VALID,304.058,VALID,26.7418,VALID,320,VALID,1.025,
2010-06-03, 10:34:04,VALID,918.991,VALID,0,VALID,71.6372,VALID,266.132,VALID,26.7027,VALID,320,VALID,0.8625,